THOR ABLESTAR DEB, 254

Orbit data source: Space-Track

THOR ABLESTAR DEB, 254 is space debris in LEO originally from a launch on Thu, 29 Jun 1961 UTC launched from the Air Force Eastern Test Range (AFETR). Debris objects in space refer to the collection of defunct objects orbiting the Earth. Examples of debris include non-operational satellites, rocket bodies, and fragments generated from explosions, collisions, or faulty payload assembly.

Loading next visibility...
Identifier
254, 1961-015CF
Orbit
LEO
Country
Flag of USUS
Related business
Manufacturer
Unknown
Mission
Spacecraft
Bus & Motor
Unknown
Mass
Unknown
Launch date (UTC)
1961-06-29 (64 years ago)
Launch vehicle
Unknown
Launch site
Air Force Eastern Test Range (AFETR)
Object type
Payload
Rocket body
Debris
Shape & HBR
Unknown
Radar Cross Section
Small (<0.1 m²)

Expand to show TLE details & history
Last TLE update: 13 hours ago

TLE from 13 hours ago
0 THOR ABLESTAR DEB
1 00254U 61015CF  25258.47485366  .00001662  00000-0  42861-3 0  9998
2 00254  66.7724 301.5258 0069792 285.2969  74.0434 14.51185731333796
Epoch: 2025-09-15T11:23Z
TLE epoch observation values (Epoch: 2025-09-15T11:23:47.356Z)
Latitude
0.00002°
Longitude
135.89951°
Altitude
710.609 km
Speed
7.508 km/s
True Right ascension
20h 06m 06s
True Declination
0° 00' 00"
Sunlit
Object was in full shadow at epoch
Visualization orbit readout
Latitude
Unknown
Longitude
Unknown
Altitude
Unknown
Speed
Unknown
Apparent Right ascension
Unknown
Apparent Declination
Unknown
Sunlit
N/A
Visualization observer readout
Local Sidereal Time
17:00:02
Azimuth
Unknown
Elevation
Unknown
Doppler factor
Unknown
Orbital elements
Apogee altitude
769.669 km
Perigee altitude
670.588 km
Semi-major axis
7,098.266 km
Eccentricity
0.00698
Inclination
66.7724°
RAAN
301.5258°
Arg. of periapsis
285.2969°
True anomaly
74.81417°
Mean anomaly
74.0434°
Eccentric anomaly
74.4286°
Mean motion
3.62923 °/min
Orbital period
99.19 mins
BSTAR
0.00042861
Loading maneuver chart data...
Computing Atmospheric mass density...

Documentation

Showing up to 5 results
|